Regional Weather Roundup
Issued by NWS

Home | Current Version | Previous Version | Graphics & Text | Print | Product List | Glossary On
Versions: 1 2 3 4 5 6 7 8 9 10 11 12 13 14 15 16 17 18 19 20 21 22 23 24 25 26 27 28 29 30 31 32 33 34 35 36 37 38 39 40 41 42 43 44 45 46 47 48 49 50
000
ASUS43 KLOT 020008
RWRIL

ILLINOIS REGIONAL WEATHER ROUNDUP
NATIONAL WEATHER SERVICE CHICAGO/ROMEOVILLE IL
700 PM CDT SUN MAY 01 2016

NOTE: "FAIR" INDICATES FEW OR NO CLOUDS BELOW 12,000 FEET WITH NO
SIGNIFICANT WEATHER AND/OR OBSTRUCTIONS TO VISIBILITY.

* THESE STATIONS ARE NOT UNDER NWS QUALITY CONTROL. THEY ALSO MAY NOT
  REPORT WEATHER SUCH AS PRECIPITATION OR FOG.

ILZ001-002-007-009-015-016-024-020100-
NORTHWEST ILLINOIS

CITY           SKY/WX    TMP DP  RH WIND       PRES   REMARKS
MOLINE         LGT RAIN  50  47  89 N3        30.00R FOG
6HR MIN TEMP:  50; 6HR MAX TEMP:  52; 6HR PCP:  0.32;

STERLING*      RAIN      48  48 100 S5        30.00R
$$

ILZ003-004-008-010-011-017-018-020100-
NORTH CENTRAL ILLINOIS

CITY           SKY/WX    TMP DP  RH WIND       PRES   REMARKS
ROCKFORD       LGT RAIN  50  44  80 NE16      30.00F
6HR MIN TEMP:  50; 6HR MAX TEMP:  54; 6HR PCP: TRACE;

FREEPORT*      DRIZZLE   49  47  93 NE5       30.00S
ROCHELLE*      TSTM      47  46  93 NE18      29.95F
DE KALB*       CLOUDY    47  45  95 N21       29.95F
$$

ILZ005-006-012>014-019>023-020100-
NORTHEAST ILLINOIS

CITY           SKY/WX    TMP DP  RH WIND       PRES   REMARKS
CHICAGO-OHARE  LGT RAIN  46  42  86 NE12      29.96F
6HR MIN TEMP:  46; 6HR MAX TEMP:  49; 6HR PCP: TRACE;

CHICAGO-MIDWAY CLOUDY    47  41  80 N16       29.95F
6HR MIN TEMP:  47; 6HR MAX TEMP:  51;

AURORA         CLOUDY    49  46  90 NE13      29.94F FOG
6HR MIN TEMP:  49; 6HR MAX TEMP:  52; 6HR PCP:  0.01;

LANSING*       LGT RAIN  46  44  93 NE9       29.94F
WAUKEGAN       LGT RAIN  46  43  89 N10       29.98F
6HR MIN TEMP:  46; 6HR MAX TEMP:  48; 6HR PCP: TRACE;

DUPAGE AIRPORT LGT RAIN  47  43  86 N16       29.94F
6HR MIN TEMP:  47; 6HR MAX TEMP:  50; 6HR PCP:  0.01;

WHEELING       LGT RAIN  46  42  86 NE13      29.97F
6HR MIN TEMP:  46; 6HR MAX TEMP:  48; 6HR PCP: TRACE;

MORRIS*        TSTM      49  46  88 NE7       29.94R
NORTHERLY ISL    N/A     44  41  89 N17         N/A
NORTHERLY ISL    N/A     44  41  89 N17         N/A
$$

LMZ740>746-020100-
SOUTHERN LAKE MICHIGAN

STATION/POSITION SKY/WX   TEMP    WIND        PRES    VSBY  WAVE
                          AIR SEA DIR/SP/G                  HT/PER
                          (F)     (DEG/KT/KT) (MB)    (MI)  (FT/S)
SOUTHERN BUOY              42 40   30/ 10/ 12 1015.8F         2/ 4
HARRISON CRIB              44     360/ 17/ 19   N/A
BURNHAM HARBOR             44     360/ 13/ 17   N/A
CALUMET HARBOR             44                 1014.4F
BURNS HARBOR               46      40/ 10/ 12 1014.9S
MICHIGAN CITY              46      10/ 12/ 13   N/A
ST. JOSEPH                 49 48                N/A           2/ 5
$$

ILZ025>027-034>036-040-047-049-050-058-095>099-020100-
WEST-CENTRAL ILLINOIS

CITY           SKY/WX    TMP DP  RH WIND       PRES   REMARKS
QUINCY         CLOUDY    53  50  89 NW16      29.97S
MACOMB*        CLOUDY    51  51  99 N14       29.99S FOG
PITTSFIELD*    CLOUDY    58  53  80 NW12      29.97R
$$

ILZ028>032-037-038-041>044-048-051>054-059>061-020100-
CENTRAL ILLINOIS

CITY           SKY/WX    TMP DP  RH WIND       PRES   REMARKS
BLOOMINGTON    LGT RAIN  54  54 100 NE10      29.93R VSB 3/4
DECATUR        MOCLDY    63  57  81 NW10      29.90R
PEORIA         CLOUDY    52  50  93 NE6       29.96R FOG
6HR MIN TEMP:  52; 6HR MAX TEMP:  54; 6HR PCP: TRACE;

LINCOLN*       DRIZZLE   56  55  99 NW3       29.94R
SPRINGFIELD    CLOUDY    58  56  93 N7        29.94S FOG
6HR MIN TEMP:  58; 6HR MAX TEMP:  64; 6HR PCP:  0.02;

TAYLORVILLE    NOT AVBL
$$

ILZ033-039-045-046-055>057-062-063-020100-
EAST-CENTRAL ILLINOIS

CITY           SKY/WX    TMP DP  RH WIND       PRES   REMARKS
CHAMPAIGN      CLOUDY    60  57  89 N10       29.87R FOG
MATTOON        LGT RAIN  66  59  78 W14       29.86R
$$

ILZ079-100>102-020100-
SOUTHWEST ILLINOIS

CITY           SKY/WX    TMP DP  RH WIND       PRES   REMARKS
ALTON          PTCLDY    66  54  63 NW14      29.93
BELLEVILLE     CLEAR     68  55  63 NW16G24   29.90R
CAHOKIA*       CLEAR     69  51  52 NW14      29.92R
SPARTA*        CLOUDY    72  62  72 NW5       29.90R
$$

ILZ064>066-069>071-074>076-080>082-084>086-088>090-092>094-020100-
SOUTH-CENTRAL ILLINOIS

CITY           SKY/WX    TMP DP  RH WIND       PRES   REMARKS
CARBONDALE     PTCLDY    75  59  57 SW9       29.87R
6HR MIN TEMP:  73; 6HR MAX TEMP:  79;

CAIRO*         CLEAR     76  63  65 SW9       29.89S
EFFINGHAM*       N/A     70  61  72 W8        29.88F
MT. VERNON     PTCLDY    73  61  64 W5        29.86F
SALEM*         PTCLDY    73  61  65 SW3       29.85F
$$

ILZ067-068-072-073-078-083-087-091-020100-
SOUTHEAST ILLINOIS

CITY           SKY/WX    TMP DP  RH WIND       PRES   REMARKS
LAWRENCEVILLE  CLEAR     75  61  61 SW9       29.85F
FLORA*         MOCLDY    74  61  63 W7        29.86F
FAIRFIELD*     PTCLDY    74  62  67 CALM      29.84F THUNDER
HARRISBURG*    CLEAR     77  62  60 SW10      29.87S
ROBINSON*      MOCLDY    71  63  75 CALM      29.86S
CARMI*         PTCLDY    75  64  70 SW6       29.84F
$$

ABBREVIATIONS USED IN REMARKS
   TC - TEMPERATURE IN CELSIUS
  WCI - WIND CHILL INDEX
   HX - HEAT INDEX
  VSB - VISIBILITY
$$





USA.gov is the U.S. government's official web portal to all federal, state and local government web resources and services.